• In Slovakia
  • List of Countries
  • For 7 days
  • Water Temperature
  • Satellite Maps
  • Weather Map
  • Weather Widgets
  • user-avatar
    Login

    Hourly Weather Vysokino

    Today, 21 May, Monday

    Time Temperature Precipitation Wind Pressure Humidity
    00:00 +6°C° 0 mm 2 mps 751 mmHg 78%
    01:00 +5°C° 0 mm 2 mps 752 mmHg 78%
    02:00 +5°C° 0 mm 2 mps 752 mmHg 78%
    03:00 +5°C° 0 mm 2 mps 752 mmHg 77%
    04:00 +6°C° 0 mm 2 mps 752 mmHg 76%
    05:00 +6°C° 0 mm 2 mps 753 mmHg 74%
    06:00 +9°C° 0 mm 2 mps 753 mmHg 67%
    07:00 +11°C° 0 mm 3 mps 753 mmHg 60%
    08:00 +13°C° 0 mm 3 mps 753 mmHg 52%
    09:00 +14°C° 0 mm 3 mps 753 mmHg 49%
    10:00 +17°C° 0 mm 3 mps 753 mmHg 45%
    11:00 +18°C° 0 mm 4 mps 753 mmHg 42%
    12:00 +19°C° 0 mm 4 mps 753 mmHg 41%
    13:00 +19°C° 0 mm 4 mps 753 mmHg 41%
    14:00 +20°C° 0 mm 4 mps 753 mmHg 41%
    15:00 +19°C° 0 mm 4 mps 753 mmHg 44%
    16:00 +19°C° 0 mm 3 mps 753 mmHg 47%
    17:00 +19°C° 0 mm 3 mps 753 mmHg 51%
    18:00 +17°C° 0 mm 3 mps 753 mmHg 58%
    19:00 +14°C° 0 mm 3 mps 753 mmHg 66%
    20:00 +13°C° 0 mm 2 mps 753 mmHg 73%
    21:00 +12°C° 0 mm 2 mps 753 mmHg 75%
    22:00 +10°C° 0 mm 2 mps 753 mmHg 77%
    23:00 +9°C° 0 mm 2 mps 753 mmHg 79%

    Tomorrow, 22 May, Tuesday

    Time Temperature Precipitation Wind Pressure Humidity
    00:00 +9°C° 0 mm 2 mps 753 mmHg 80%
    01:00 +9°C° 0 mm 2 mps 753 mmHg 81%
    02:00 +8°C° 0 mm 2 mps 753 mmHg 81%
    03:00 +9°C° 0 mm 2 mps 753 mmHg 79%
    04:00 +10°C° 0 mm 3 mps 753 mmHg 76%
    05:00 +10°C° 0 mm 3 mps 753 mmHg 74%
    06:00 +11°C° 0 mm 3 mps 753 mmHg 72%
    07:00 +12°C° 0 mm 4 mps 753 mmHg 70%
    08:00 +13°C° 0 mm 4 mps 753 mmHg 69%
    09:00 +13°C° 0.5 mm 4 mps 753 mmHg 74%
    10:00 +12°C° 0.5 mm 4 mps 753 mmHg 79%
    11:00 +12°C° 0.5 mm 4 mps 752 mmHg 84%
    12:00 +13°C° 0.1 mm 4 mps 752 mmHg 80%
    13:00 +14°C° 0.1 mm 4 mps 752 mmHg 76%
    14:00 +15°C° 0.1 mm 4 mps 752 mmHg 72%
    15:00 +16°C° 0 mm 3 mps 752 mmHg 76%
    16:00 +16°C° 0 mm 3 mps 751 mmHg 80%
    17:00 +16°C° 0 mm 2 mps 751 mmHg 84%
    18:00 +15°C° 0 mm 2 mps 751 mmHg 88%
    19:00 +15°C° 0 mm 2 mps 750 mmHg 91%
    20:00 +14°C° 0 mm 2 mps 750 mmHg 95%
    21:00 +14°C° 0 mm 1 mps 750 mmHg 96%
    22:00 +14°C° 0 mm 1 mps 750 mmHg 97%
    23:00 +14°C° 0 mm 1 mps 750 mmHg 98%

    Day after tomorrow, 23 May, Wednesday

    Time Temperature Precipitation Wind Pressure Humidity
    00:00 +13°C° 0.1 mm 1 mps 750 mmHg 97%
    01:00 +13°C° 0.1 mm 1 mps 750 mmHg 96%
    02:00 +13°C° 0.1 mm 1 mps 750 mmHg 96%
    03:00 +13°C° 0 mm 1 mps 750 mmHg 95%
    04:00 +13°C° 0 mm 1 mps 750 mmHg 95%
    05:00 +13°C° 0 mm 1 mps 750 mmHg 95%
    06:00 +15°C° 0 mm 1 mps 750 mmHg 88%
    07:00 +16°C° 0 mm 1 mps 750 mmHg 82%
    08:00 +19°C° 0 mm 1 mps 750 mmHg 76%
    09:00 +19°C° 0 mm 2 mps 750 mmHg 71%
    10:00 +20°C° 0 mm 2 mps 749 mmHg 66%
    11:00 +21°C° 0 mm 3 mps 749 mmHg 61%
    12:00 +22°C° 0 mm 3 mps 749 mmHg 58%
    13:00 +22°C° 0 mm 3 mps 749 mmHg 55%
    14:00 +24°C° 0 mm 3 mps 748 mmHg 53%
    15:00 +24°C° 0.2 mm 3 mps 748 mmHg 57%
    16:00 +22°C° 0.2 mm 3 mps 748 mmHg 62%
    17:00 +22°C° 0.2 mm 3 mps 748 mmHg 66%
    18:00 +20°C° 0.1 mm 2 mps 748 mmHg 74%
    19:00 +18°C° 0.1 mm 2 mps 748 mmHg 82%
    20:00 +16°C° 0.1 mm 2 mps 748 mmHg 90%
    21:00 +16°C° 0.1 mm 2 mps 748 mmHg 92%
    22:00 +15°C° 0.1 mm 2 mps 748 mmHg 94%
    23:00 +14°C° 0.1 mm 2 mps 748 mmHg 96%

    24 May, Thursday

    Time Temperature Precipitation Wind Pressure Humidity
    00:00 +14°C° 0 mm 2 mps 748 mmHg 96%
    01:00 +13°C° 0 mm 1 mps 748 mmHg 96%
    02:00 +13°C° 0 mm 1 mps 748 mmHg 96%
    03:00 +13°C° 0 mm 1 mps 748 mmHg 96%
    04:00 +13°C° 0 mm 2 mps 748 mmHg 96%
    05:00 +13°C° 0 mm 2 mps 748 mmHg 95%
    06:00 +15°C° 0 mm 2 mps 749 mmHg 89%
    07:00 +16°C° 0 mm 2 mps 749 mmHg 82%
    08:00 +18°C° 0 mm 3 mps 749 mmHg 75%
    09:00 +19°C° 0 mm 3 mps 749 mmHg 69%
    10:00 +20°C° 0 mm 3 mps 749 mmHg 63%
    11:00 +21°C° 0 mm 3 mps 749 mmHg 57%
    12:00 +22°C° 0.1 mm 4 mps 749 mmHg 56%
    13:00 +22°C° 0.1 mm 4 mps 749 mmHg 55%
    14:00 +22°C° 0.1 mm 4 mps 749 mmHg 54%
    15:00 +21°C° 0.5 mm 4 mps 749 mmHg 61%
    16:00 +20°C° 0.5 mm 4 mps 749 mmHg 68%
    17:00 +19°C° 0.5 mm 4 mps 750 mmHg 74%
    18:00 +18°C° 0 mm 4 mps 750 mmHg 77%
    19:00 +15°C° 0 mm 4 mps 750 mmHg 80%
    20:00 +14°C° 0 mm 4 mps 751 mmHg 84%
    21:00 +13°C° 0 mm 4 mps 751 mmHg 83%
    22:00 +12°C° 0 mm 4 mps 752 mmHg 83%
    23:00 +11°C° 0 mm 3 mps 752 mmHg 82%

    25 May, Friday

    Time Temperature Precipitation Wind Pressure Humidity
    00:00 +10°C° 0 mm 4 mps 753 mmHg 79%
    01:00 +10°C° 0 mm 4 mps 753 mmHg 75%
    02:00 +8°C° 0 mm 4 mps 754 mmHg 71%
    03:00 +7°C° 0 mm 4 mps 754 mmHg 70%
    04:00 +7°C° 0 mm 4 mps 754 mmHg 69%
    05:00 +7°C° 0 mm 4 mps 755 mmHg 68%
    06:00 +8°C° 0 mm 4 mps 755 mmHg 63%
    07:00 +10°C° 0 mm 5 mps 755 mmHg 57%
    08:00 +12°C° 0 mm 5 mps 756 mmHg 52%
    09:00 +13°C° 0 mm 5 mps 756 mmHg 49%
    10:00 +14°C° 0 mm 5 mps 756 mmHg 47%
    11:00 +15°C° 0 mm 5 mps 756 mmHg 44%
    12:00 +16°C° 0 mm 5 mps 756 mmHg 44%
    13:00 +16°C° 0 mm 5 mps 756 mmHg 44%
    14:00 +18°C° 0 mm 4 mps 756 mmHg 43%
    15:00 +17°C° 0 mm 4 mps 756 mmHg 45%
    16:00 +17°C° 0 mm 4 mps 756 mmHg 48%
    17:00 +17°C° 0 mm 4 mps 756 mmHg 50%
    18:00 +14°C° 0 mm 3 mps 756 mmHg 56%
    19:00 +12°C° 0 mm 3 mps 756 mmHg 63%
    20:00 +10°C° 0 mm 2 mps 756 mmHg 70%
    21:00 +9°C° 0 mm 2 mps 757 mmHg 72%
    22:00 +9°C° 0 mm 2 mps 757 mmHg 74%
    23:00 +8°C° 0 mm 2 mps 757 mmHg 76%

    26 May, Saturday

    Time Temperature Precipitation Wind Pressure Humidity
    00:00 +7°C° 0 mm 2 mps 757 mmHg 77%
    01:00 +6°C° 0 mm 2 mps 757 mmHg 79%
    02:00 +6°C° 0 mm 2 mps 758 mmHg 80%
    03:00 +6°C° 0 mm 2 mps 758 mmHg 79%
    04:00 +7°C° 0 mm 2 mps 758 mmHg 77%
    05:00 +7°C° 0 mm 2 mps 758 mmHg 76%
    06:00 +9°C° 0 mm 2 mps 758 mmHg 69%
    07:00 +12°C° 0 mm 2 mps 758 mmHg 62%
    08:00 +14°C° 0 mm 2 mps 758 mmHg 55%
    09:00 +16°C° 0 mm 3 mps 758 mmHg 51%
    10:00 +17°C° 0 mm 3 mps 758 mmHg 47%
    11:00 +18°C° 0 mm 3 mps 757 mmHg 44%
    12:00 +19°C° 0 mm 3 mps 757 mmHg 43%
    13:00 +19°C° 0 mm 3 mps 757 mmHg 43%
    14:00 +20°C° 0 mm 3 mps 756 mmHg 42%
    15:00 +20°C° 0 mm 3 mps 756 mmHg 45%
    16:00 +20°C° 0 mm 3 mps 755 mmHg 48%
    17:00 +19°C° 0 mm 3 mps 755 mmHg 51%
    18:00 +17°C° 0 mm 2 mps 755 mmHg 59%
    19:00 +15°C° 0 mm 2 mps 755 mmHg 66%
    20:00 +13°C° 0 mm 2 mps 755 mmHg 74%
    21:00 +13°C° 0 mm 2 mps 755 mmHg 78%
    22:00 +12°C° 0 mm 2 mps 755 mmHg 81%
    23:00 +10°C° 0 mm 2 mps 755 mmHg 84%
    Show more